Location: Unspecified
(49.2170°N, 0.0000°E)
Time: 15:26:53
(UTC+00:00)

Tiros 1 despin weight - Pass Details

Date: 26 January 2021
Orbit: 593 x 642 km, 48.2° (Epoch: 07 March)

Event Time Altitude Azimuth Distance (km) Brightness Sun altitude
Rises 19:08:01 0° 282° (WNW) 2,857 ? -22.9°
Reaches altitude 10° 19:10:37 10° 269° (W) 1,943 ? -23.3°
Maximum altitude 19:14:17 25° 214° (SSW) 1,206 ? -23.9°
Enters shadow 19:16:01 20° 179° (S) 1,402 ? -24.2°
Drops below altitude 10° 19:17:54 10° 158° (SSE) 1,921 - -24.5°
Sets 19:20:27 0° 145° (SE) 2,816 - -24.9°
